Location: Domont
(49.0278°N, 2.3264°E)
Time: 06:57:34
(UTC+00:00)

STRAND 1 - Visible Passes

Search period start: 28 June 2022 00:00
Search period end: 08 July 2022 00:00
Orbit: 768 x 780 km, 98.4° (Epoch: 27 June)

Date Brightness Start Highest point End Pass type
(mag) Time Alt. Az. Time Alt. Az. Time Alt. Az.
29 Jun ? 20:51:31 10° NNW 20:54:28 16° NW 20:57:25 10° W visible
02 Jul ? 20:48:01 10° NNW 20:51:09 16° NW 20:54:15 10° W visible
05 Jul ? 20:44:31 10° NNW 20:47:48 17° NW 20:51:03 10° W visible
07 Jul ? 21:17:25 10° NW 21:18:06 10° NW 21:18:47 10° WNW visible
